Location: Ay?beleni
(36.6500°N, 30.3000°E)
Time: 04:51:25
(UTC+00:00)

Cosmos 2322 Rocket - Pass Details

Date: 16 October 2021
Orbit: 832 x 852 km, 71.0° (Epoch: 08 December)

Event Time Altitude Azimuth Distance (km) Brightness Sun altitude
Rises 18:18:52 0° 218° (SW) 3,363 5.6 -36.1°
Reaches altitude 10° 18:21:24 10° 225° (SW) 2,432 4.8 -36.6°
Enters shadow 18:22:47 18° 232° (SW) 1,956 4.3 -36.9°
